Weather History for KEUG - August, 2013

Change the Weather History Date:

Monday, August 26, 2013

  Actual Average Record
Temperature  
Mean Temperature 68 °F 66 °F  
Max Temperature 82 °F 82 °F 96 °F (2014)
Min Temperature 54 °F 50 °F 40 °F (1946)
Degree Days  
Heating Degree Days 0 1  
Month to date heating degree days 12 26  
Since 1 June heating degree days 110 219  
Since 1 July heating degree days 18 62  
Cooling Degree Days 3 2  
Month to date cooling degree days 114 82  
Year to date cooling degree days 313 199  
Since 1 June cooling degree days 308 194  
Growing Degree Days 18 (Base 50)    
Moisture  
Dew Point 53 °F    
Average Humidity 63    
Maximum Humidity 93    
Minimum Humidity 32    
Precipitation  
Precipitation 0.00 in 0.03 in 0.32 in (1926)
Month to date precipitation 0.16 0.46  
Year to date precipitation 9.83 25.86  
Snow  
Snow 0.00 in - - ()
Month to date snowfall 0.0  
Since 1 June snowfall 0.0  
Since 1 July snowfall 0.0  
Snow Depth 0.00 in    
Sea Level Pressure  
Sea Level Pressure 29.94 in    
Wind  
Wind Speed 8 mph (SW)    
Max Wind Speed 18 mph    
Max Gust Speed 23 mph    
Visibility 10 miles    
Events      
T = Trace of Precipitation, MM = Missing Value Source: NWS Daily Summary

Daily Weather History Graph

Daily Weather History Graph

Search for Another Location

Airport or City:

Trip Planner

Search our weather history database for the weather conditions in past years. The results will help you decide how hot, cold, wet, or windy it might be!

Date:

Astronomy

Aug. 26, 2013 Rise Set
Actual Time 6:29 AM PDT 7:58 PM PDT
Civil Twilight 5:59 AM PDT 8:28 PM PDT
Nautical Twilight 5:22 AM PDT 9:05 PM PDT
Astronomical Twilight 4:43 AM PDT 9:44 PM PDT
Moon 10:57 PM PDT (8/26) 12:51 PM PDT (8/26)
Length of Visible Light 14h 29m
Length of Day
13h 29m
Waning Gibbous, 65% of the Moon is Illuminated
Aug 26
Waning Gibbous
Aug 28
Last Quarter
Sep 5
New
Sep 12
First Quarter
Sep 19
Full

Hourly Weather History & Observations

Time (PDT) Temp. Dew Point Humidity Pressure Visibility Wind Dir Wind Speed Gust Speed Precip Events Conditions
12:04 AM 60.8 °F 57.2 °F 88% 29.94 in 10.0 mi WSW 6.9 mph - N/A   Partly Cloudy
12:54 AM 59.0 °F 55.9 °F 90% 29.93 in 10.0 mi SSW 3.5 mph - N/A   Mostly Cloudy
1:54 AM 57.9 °F 55.9 °F 93% 29.94 in 10.0 mi SSW 4.6 mph - N/A   Mostly Cloudy
2:13 AM 57.2 °F 55.4 °F 94% 29.93 in 10.0 mi SW 5.8 mph - N/A   Partly Cloudy
2:54 AM 57.0 °F 55.0 °F 93% 29.93 in 10.0 mi SW 6.9 mph - N/A   Mostly Cloudy
3:54 AM 57.0 °F 55.0 °F 93% 29.94 in 10.0 mi SW 4.6 mph - N/A   Overcast
4:54 AM 57.9 °F 55.0 °F 90% 29.93 in 10.0 mi SW 3.5 mph - N/A   Overcast
5:54 AM 55.0 °F 53.1 °F 93% 29.94 in 10.0 mi SSW 3.5 mph - N/A   Mostly Cloudy
6:54 AM 55.0 °F 53.1 °F 93% 29.95 in 10.0 mi SSW 6.9 mph - N/A   Mostly Cloudy
7:54 AM 57.0 °F 55.0 °F 93% 29.95 in 10.0 mi SW 6.9 mph - N/A   Mostly Cloudy
8:54 AM 60.1 °F 55.9 °F 86% 29.94 in 10.0 mi SW 8.1 mph - N/A   Mostly Cloudy
9:54 AM 64.9 °F 57.0 °F 75% 29.95 in 10.0 mi South 11.5 mph - N/A   Scattered Clouds
10:54 AM 69.1 °F 55.9 °F 63% 29.95 in 10.0 mi SSW 5.8 mph - N/A   Scattered Clouds
11:54 AM 71.1 °F 54.0 °F 55% 29.94 in 10.0 mi WSW 6.9 mph - N/A   Scattered Clouds
12:54 PM 77.0 °F 48.0 °F 36% 29.94 in 10.0 mi SW 12.7 mph 20.7 mph N/A   Mostly Cloudy
1:54 PM 79.0 °F 46.9 °F 32% 29.93 in 10.0 mi SW 13.8 mph 20.7 mph N/A   Scattered Clouds
2:54 PM 79.0 °F 48.0 °F 34% 29.92 in 10.0 mi SW 6.9 mph - N/A   Scattered Clouds
3:54 PM 79.0 °F 46.9 °F 32% 29.91 in 10.0 mi WSW 6.9 mph - N/A   Mostly Cloudy
4:54 PM 78.1 °F 48.0 °F 35% 29.92 in 10.0 mi West 12.7 mph - N/A   Mostly Cloudy
5:54 PM 73.9 °F 48.9 °F 41% 29.93 in 10.0 mi WNW 11.5 mph - N/A   Mostly Cloudy
6:54 PM 72.0 °F 50.0 °F 46% 29.93 in 10.0 mi West 6.9 mph - N/A   Overcast
7:54 PM 70.0 °F 51.1 °F 51% 29.95 in 9.0 mi West 6.9 mph - N/A   Mostly Cloudy
8:54 PM 68.0 °F 51.1 °F 55% 29.97 in 10.0 mi West 6.9 mph - N/A   Overcast
9:54 PM 66.9 °F 52.0 °F 59% 29.97 in 10.0 mi Calm Calm - N/A   Overcast
10:54 PM 63.0 °F 52.0 °F 67% 29.97 in 10.0 mi Calm Calm - N/A   Scattered Clouds
11:54 PM 59.0 °F 48.9 °F 69% 29.97 in 10.0 mi Calm Calm - N/A   Clear